{"data":{"norad_id":32708,"epoch":"2026-05-24T17:45:13.724352Z","epoch_age_seconds":91314,"freshness":"FRESH","line1":"1 32708U 08011A   26144.73974218  .00000000  00000+0  00000+0 0  9996","line2":"2 32708  23.9746  20.7664 0048303  90.0743  96.0893  1.00349679 67938","mean_motion":1.00349679,"eccentricity":0.0048303,"inclination_deg":23.9746,"raan_deg":20.7664,"arg_perigee_deg":90.0743,"mean_anomaly_deg":96.0893,"bstar":0,"rev_number":6793,"period_min":1434.9821687023,"perigee_km":35561.209675525,"apogee_km":35968.335467732,"semimajor_km":42142.909571629,"source":"CELESTRAK","updated_at":"2026-05-25T13:38:13.856666Z"}}